Regional Weather Roundup
Issued by NWS

Home | Current Version | Previous Version | Text Only | Print | Product List | Glossary On
Versions: 1 2 3 4 5 6 7 8 9 10 11 12 13 14 15 16 17 18 19 20 21 22 23 24 25 26 27 28 29 30 31 32 33 34 35 36 37 38 39 40 41 42 43 44 45 46 47 48 49 50
000
ASUS44 KLIX 252013
RWRLA
LOUISIANA WEATHER ROUNDUP
NATIONAL WEATHER SERVICE NEW ORLEANS LA
300 PM CDT SAT MAR 25 2017

NOTE: "FAIR" INDICATES FEW OR NO CLOUDS BELOW 12,000 FEET WITH NO
      SIGNIFICANT WEATHER AND/OR OBSTRUCTIONS TO VISIBILITY.
      SKY/WX - SKY CONDITION AND SIGNIFICANT WEATHER.
      TMP - AIR TEMPERATURE.    DP   - DEWPOINT TEMPERATURE.
      RH  - RELATIVE HUMIDITY.  PRES - PRESSURE.
      HX  - HEAT INDEX.         WCI  - WIND CHILL INDEX.

*  THESE STATIONS ARE NOT NWS OR FAA STATIONS AND ARE NOT UNDER
   NWS QUALITY CONTROL.

LAZ040-048-061>063-065-066-069-252100-
SOUTHEAST LOUISIANA

CITY           SKY/WX    TMP DP  RH WIND       PRES   REMARKS
N.O. INTL ARPT LGT RAIN  64  61  90 NW8       30.04F
N.O. LAKEFRONT LGT RAIN  66  61  84 NW22      30.05F
N.O. DOWNTOWN* TSTM      64  60  87 VRB6G16   30.06F
RESERVE*       LGT RAIN  64  62  94 E6        30.02F
SLIDELL        CLOUDY    64  61  90 VRB5      30.04F
BATON ROUGE    PTSUNNY   72  61  68 S10       29.99F
BOOTHVILLE     MOSUNNY   77  66  68 S15       30.04F
BELLE CHASSE   TSTM      63  62  97 VRB3      30.07S FOG
BOGALUSA*      NOT AVBL
GALLIANO*      LGT RAIN  67  57  71 NW29G38   30.04R
NEW ROADS*     FAIR      71  59  64 S10       29.99F
GONZALES*      FAIR      65  61  85 S3        30.02S
HAMMOND*       LGT RAIN  63  59  88 S12       30.00F
HOUMA*         LGT RAIN  63  61  94 MISG      30.06F
PORT FOURCHON* CLOUDY    77  72  83 S13G22    30.03F

$$

LAZ041-044-053-054-252100-
SOUTHWEST LOUISIANA

CITY           SKY/WX    TMP DP  RH WIND       PRES   REMARKS
LAKE CHARLES   SUNNY     77  63  61 W16G23    29.96F
LAFAYETTE      MOSUNNY   76  60  57 SW8       29.98F
PATTERSON      LGT RAIN  66  63  90 S5        30.03
SALT POINT       N/A     70  61  73 VRB3      30.01F
NEW IBERIA     PTSUNNY   75  56  51 SW9       30.00F
CHENAULT AIRPK SUNNY     77  63  61 SW15      29.97F

$$

LAZ027-028-252100-
CENTRAL LOUISIANA

CITY           SKY/WX    TMP DP  RH WIND       PRES   REMARKS
FORT POLK      MOSUNNY   76  54  45 W13       29.95F
ALEXANDRIA INT LGT RAIN  75  63  66 S12       29.93F
ALEXANDRIA     PTSUNNY   78  59  51 SW10      29.95F

$$

LAZ001-002-252100-
NORTHWEST LOUISIANA

CITY           SKY/WX    TMP DP  RH WIND       PRES   REMARKS
SHREVEPORT     MOSUNNY   76  49  38 W14       29.93F
BARKSDALE AFB  SUNNY     74  50  42 NW14      29.92F
DTN SHREVEPORT SUNNY     74  50  42 W14       29.93F

$$

LAZ014-016-252100-
NORTHEAST LOUISIANA

CITY           SKY/WX    TMP DP  RH WIND       PRES   REMARKS
MONROE         MOSUNNY   76  52  43 SW16G25   29.92F
TALLULAH       CLOUDY    76  61  59 SW9G28    29.92F

$$




USA.gov is the U.S. government's official web portal to all federal, state and local government web resources and services.